sat.trackr.live / text

‹ back to catalog

STARLINK-33708

NORAD 63405 · 2025-065G

PAYLOAD ACTIVE UNKNOWN

§ Identity

Operator
Country
US
Launch date
2025-03-31
Launch site
AFETR
Launch vehicle
Mass (kg)
RCS (m²)

Purposes: comms

External: N2YO · Heavens-Above · Gunter

§ Orbital elements

Epoch: 2026-09-20T19:40:15.925728Z

Period
94.27 min
Inclination
43.0044°
Eccentricity
0.0000661
Mean motion
15.27588748 rev/d
Perigee alt
482.6 km
Apogee alt
483.5 km
Semi-major
6,861.2 km
B*
4.5706e-4
RAAN
84.9911°
Arg perigee
301.6116°
Mean anomaly
58.4671°
Rev number
8,268

§ Raw data

STARLINK-337081 63405U 25065G   26263.81962877  .00012340  00000+0  45706-3 0  99972 63405  43.0044  84.9911 0000661 301.6116  58.4671 15.27588748 82688

JSON: /api/v1/satellites/63405 · /tle

For live sub-satellite position, see the globe view (requires WebGL).

§ Visibility from observer

Set your observer location to see the next 7 days of passes ≥ 10°. The values pass through the URL so the page stays shareable.

No JS? Fill the form by hand. The geolocation button needs JavaScript.